Home   Weather   Enschede   Past weeks

Flag for Netherlands Past Weather in Enschede, Netherlands — Yesterday and Last 2 Weeks

Now
55 °F

Passing clouds.


Feels Like: 53 °F
Forecast: 54 / 69 °F
Wind: 9 mph from Southwest

Location: Deelen

Current Time: Aug 20, 2017 at 6:10:05 am

Latest Report: Aug 20, 2017 at 5:25 am


Visibility: N/A

Pressure: 30.09 "Hg

Humidity: 94%

Dew Point: 54 °F

Location of EnschedeLocation

Past Weather in Enschede — Graph

°F

Enschede Temperature Yesterday

Maximum temperature yesterday: 66 °F (at 5:55 pm)
Minimum temperature yesterday: 54 °F (at 12:25 am)
Average temperature yesterday: 58 °F

High & Low Weather Summary for the Past Weeks

 TemperatureHumidityPressure
High77 °F (Aug 14, 4:25 pm)100% (Aug 5, 10:55 pm)30.18 "Hg (Aug 5, 10:55 pm)
Low46 °F (Aug 7, 4:25 am)44% (Aug 7, 5:55 pm)29.74 "Hg (Aug 8, 1:55 pm)
Average62 °F83%30.01 "Hg
* Reported Aug 5 4:25 am — Aug 20 4:55 am, Enschede. Weather by CustomWeather, © 2017

Note: Actual official high and low records may vary slightly from our data, if they occured in-between our weather recording intervals... More about our weather records

Advertising

Enschede Weather History for the Previous 24 Hours

Scroll right to see more
 ConditionsComfort  
Time TempWeatherWind HumidityBarometerVisibility
4:55 am
Sun, Aug 20
54 °FOvercast.6 mph100%30.09 "HgN/A
4:25 am54 °FPartly cloudy.8 mph100%30.09 "HgN/A
3:55 am54 °FMostly cloudy.7 mph94%30.09 "HgN/A
3:25 am54 °FPartly cloudy.7 mph94%30.09 "HgN/A
2:55 am54 °FPassing clouds.6 mph100%30.07 "HgN/A
1:55 am54 °FSprinkles. Partly cloudy.7 mph100%30.09 "HgN/A
1:25 am54 °FLight rain. Overcast.8 mph100%30.09 "Hg6 mi
12:55 am54 °FRain showers. Partly cloudy.8 mph94%30.09 "Hg6 mi
12:25 am55 °FLight rain. Partly cloudy.10 mph94%30.09 "HgN/A
11:55 pm
Sat, Aug 19
57 °FPartly cloudy.6 mph88%30.07 "HgN/A
11:25 pm57 °FPassing clouds.7 mph82%30.07 "HgN/A
10:55 pm57 °FMostly cloudy.7 mph82%30.07 "HgN/A
10:25 pm57 °FOvercast.5 mph82%30.07 "HgN/A
9:55 pm57 °FPassing clouds.7 mph77%30.07 "HgN/A
9:25 pm59 °FOvercast.10 mph72%30.07 "HgN/A
8:55 pm59 °FPassing clouds.8 mph72%30.04 "HgN/A
8:25 pm59 °FCool.7 mph72%30.04 "HgN/A
7:55 pm63 °FPassing clouds.9 mph64%30.04 "HgN/A
7:25 pm63 °FScattered clouds.7 mph64%30.04 "HgN/A
6:55 pm63 °FPassing clouds.10 mph59%30.04 "HgN/A
6:25 pm64 °FBroken clouds.9 mph60%30.04 "HgN/A
5:55 pm66 °FBroken clouds.10 mph60%30.04 "HgN/A
5:25 pm64 °FPassing clouds.13 mph56%30.01 "HgN/A
4:55 pm64 °FPassing clouds.12 mph68%30.01 "HgN/A
4:25 pm63 °FBroken clouds.8 mph83%30.01 "HgN/A
3:55 pm64 °FBroken clouds.12 mph78%30.01 "HgN/A
3:25 pm64 °FPassing clouds.15 mph78%30.01 "HgN/A
2:55 pm64 °FBroken clouds.16 mph73%29.98 "HgN/A
2:25 pm63 °FBroken clouds.14 mph73%29.98 "HgN/A
1:55 pm64 °FPartly sunny.14 mph68%29.98 "HgN/A
1:25 pm64 °FPartly sunny.13 mph60%29.98 "HgN/A
12:55 pm64 °FScattered clouds.13 mph64%29.98 "HgN/A
12:25 pm61 °FPartly sunny.12 mph83%29.95 "HgN/A
11:55 am59 °FLight rain. Broken clouds.13 mph88%29.95 "HgN/A
11:25 am59 °FBroken clouds.12 mph88%29.95 "HgN/A
10:55 am59 °FCloudy.15 mph88%29.95 "HgN/A
10:25 am57 °FBroken clouds.10 mph94%29.95 "HgN/A
9:55 am57 °FMostly cloudy.14 mph94%29.92 "HgN/A
9:25 am57 °FCloudy.12 mph88%29.92 "HgN/A
8:55 am55 °FDrizzle. Mostly cloudy.10 mph94%29.92 "Hg6 mi
8:25 am55 °FLight rain. Broken clouds.13 mph94%29.92 "Hg4 mi
7:55 am55 °FDrizzle. More clouds than sun.12 mph88%29.89 "HgN/A
7:25 am55 °FScattered clouds.14 mph88%29.89 "HgN/A
6:55 am55 °FBroken clouds.13 mph88%29.89 "HgN/A
6:25 am54 °FOvercast.10 mph94%29.89 "HgN/A
Weather by CustomWeather, © 2017

See weather overviewHow to use our weather pages